SCP
-0 -0 -0 -0 0 0 0 0 0 0 0 0 0 0 0 0 0 0 0 0 0 0 0 0 0 -0 0 0 0 0 0 0 -0 0 0 0 0 0 0 0 0 0 0
-0 -0 -1 -0 -0 -0 -0 0 0 -0 0 0 0 0 0 0 0 0 0 0 0 0 0 0 0 0 -0 0 0 -0 0 0 0 0 0 0 0 0 0 0 0 0 0
-0 -0 -0 -0 -0 0 0 0 0 0 -0 -0 -0 0 0 0 1 1 0 0 0 0 0 0 0 0 -0 -0 -0 0 0 0 0 0 0 0 0 0 0 0 0 0 0
0 0 0 0 0 0 0 0 0 0 -0 -0 0 0 0 1 1 1 1 1 1 0 0 0 0 0 0 0 0 0 0 0 0 0 0 0 0 0 0 1 0 0 0
-0 0 0 0 0 0 0 0 0 0 0 0 0 0 0 1 1 1 1 1 0 0 0 0 0 0 0 0 0 0 0 0 0 0 0 0 0 0 0 0 0 0 0
-0 -0 0 0 0 0 0 0 0 0 0 0 1 1 0 0 0 0 0 0 0 0 0 0 -0 -0 0 0 0 0 0 0 0 0 0 0 -0 0 0 0 1 0 0
0 0 0 0 0 0 0 0 0 0 0 0 0 0 0 0 0 0 0 0 0 0 0 0 0 0 -0 0 0 0 0 0 0 0 0 -0 0 0 0 0 0 0 0
0 0 0 0 0 0 0 0 0 0 0 0 0 0 0 0 0 0 0 0 0 0 0 0 0 0 0 0 0 0 0 0 0 0 0 0 0 0 0 0 0 0 0
0 0 0 0 0 0 0 0 0 0 0 0 0 0 0 0 0 0 0 0 0 0 0 0 0 0 0 0 0 0 0 0 0 0 0 0 -0 -0 0 0 0 0 0
0 0 0 0 0 0 0 0 0 0 0 0 0 0 0 0 0 0 0 0 0 0 0 0 0 0 0 0 0 0 0 0 0 0 0 0 -0 -0 0 0 0 0 0
0 0 0 0 0 0 0 0 0 0 0 0 0 0 0 0 0 0 0 0 0 0 0 0 0 0 0 0 0 0 0 0 0 0 0 0 0 0 0 0 0 0 0
0 0 0 0 0 0 0 0 0 0 0 0 0 0 0 0 0 0 0 0 0 0 0 0 0 0 0 0 0 0 0 0 0 0 0 0 0 0 0 0 0 0 0
0 0 0 0 0 0 0 0 0 0 0 0 0 0 0 0 0 0 0 0 0 0 0 0 0 0 0 0 0 0 0 0 0 0 0 0 0 0 0 0 0 0 0
0 0 0 0 0 0 0 0 0 0 0 0 0 0 0 0 0 0 0 0 0 0 0 0 0 0 0 0 0 0 0 0 0 0 0 0 0 0 0 0 0 0 0
0 0 0 0 0 0 0 0 0 0 0 0 0 0 0 0 0 0 0 0 0 0 0 0 0 0 0 0 0 0 0 0 0 0 0 0 0 0 0 0 0 0 0
0 0 0 0 0 0 0 0 0 0 0 0 0 0 0 0 0 0 0 0 0 0 0 0 0 0 0 0 0 0 0 0 0 0 0 0 0 0 0 0 0 0 0
0 0 0 0 0 0 0 0 0 0 0 0 0 0 0 0 0 0 0 0 0 0 0 0 0 0 0 0 0 0 0 0 0 0 0 0 0 0 0 0 0 0 0
0 0 0 0 0 0 0 0 0 0 0 0 0 0 0 0 0 0 0 0 0 0 0 0 0 0 0 0 0 0 0 0 0 0 0 0 0 0 0 0 0 0 0
0 0 0 0 0 0 0 0 0 0 0 0 0 -0 0 0 0 0 0 0 0 0 0 0 0 0 0 0 0 0 0 0 0 0 0 0 0 0 0 0 0 0 0
0 0 0 0 0 0 0 0 0 0 0 0 0 0 0 0 0 0 0 0 0 0 0 0 0 0 0 0 0 0 0 0 0 0 0 0 0 0 0 0 0 0 0
0 0 0 0 0 0 0 0 0 0 0 0 0 0 0 0 0 0 0 0 0 0 0 0 0 0 0 0 0 0 0 0 0 0 0 0 0 0 0 0 0 0 0
0 0 0 0 0 0 0 0 0 0 0 0 0 0 0 0 0 0 0 0 0 0 0 0 0 0 0 0 0 -0 -0 0 0 0 0 0 0 0 0 0 0 0 0
0 0 0 0 0 0 0 0 0 0 0 0 0 0 0 0 0 0 0 0 0 0 0 0 0 0 0 0 0 0 0 0 0 0 0 0 0 0 0 0 0 0 0
0 0 0 0 0 0 0 0 0 0 0 0 0 0 0 0 0 0 0 0 0 0 0 0 0 0 0 0 0 0 -0 0 -0 -0 0 0 0 0 0 0 0 0 0
0 0 0 0 0 0 0 0 0 0 0 0 0 0 0 0 0 0 0 0 0 0 0 0 0 0 0 0 0 0 -0 -0 -0 -0 0 0 0 0 0 0 0 0 0
0 0 0 0 0 0 0 0 0 0 0 0 0 0 0 0 0 0 0 0 0 0 0 0 0 0 0 0 0 0 0 0 0 0 0 0 0 0 0 0 0 0 0
Wind_Speed_500mb
62 56 61 53 51 46 45 42 41 44 42 43 43 40 39 39 37 34 36 30 35 33 34 38 45 42 44 52 56 55 48 43 45 41 37 31 32 36 47 49 52 55 39
61 56 58 54 52 49 46 37 31 35 39 40 39 41 45 50 53 44 44 38 38 35 31 31 39 43 50 53 62 61 58 48 45 50 46 50 45 45 40 52 61 59 49
57 55 37 37 39 37 32 30 28 29 30 32 34 36 36 36 43 53 50 47 42 40 36 37 35 32 46 47 47 52 57 60 53 53 49 43 44 42 39 45 61 65 64
25 30 29 27 31 31 30 29 34 39 41 44 37 37 40 40 42 46 52 52 39 39 35 38 37 38 39 36 43 47 45 53 60 60 61 55 50 48 48 44 63 65 65
27 23 26 36 48 51 51 39 37 30 31 31 38 37 38 39 43 46 49 55 47 36 10 56 39 43 41 41 39 37 42 48 50 54 63 71 74 64 50 51 56 57 62
28 19 10 9 19 21 21 23 27 31 30 29 28 32 37 38 38 41 42 39 43 50 48 18 58 63 51 52 45 38 47 45 44 49 61 75 78 74 74 55 65 69 71
21 17 14 13 16 20 20 17 21 25 29 26 28 31 31 31 32 36 36 33 32 39 43 38 48 44 52 52 48 49 46 45 47 43 69 76 79 88 83 77 85 78 84
11 11 9 9 11 14 17 19 17 16 17 19 19 19 22 27 32 32 29 29 29 29 32 37 43 51 56 60 66 66 60 60 57 61 62 63 66 66 67 62 70 77 79
10 11 13 14 16 17 18 20 22 23 24 25 24 23 23 24 29 30 26 23 25 25 22 26 33 39 39 42 49 50 48 47 45 49 56 58 58 63 60 61 71 77 86
11 15 17 16 16 14 12 13 12 8 6 12 17 22 28 30 32 33 32 31 30 27 28 26 30 30 33 34 33 37 41 42 42 44 45 51 55 60 64 66 71 82 88
13 12 9 6 8 13 16 13 9 6 8 12 10 9 9 11 15 20 21 23 27 31 34 32 33 31 30 29 28 30 34 38 44 52 59 65 67 67 63 68 71 73 85
4 4 11 16 18 18 15 12 14 13 15 18 19 19 21 22 24 26 27 26 28 28 25 33 40 41 40 38 40 43 45 47 48 49 53 59 65 70 71 62 66 70 77
11 17 14 11 9 7 7 8 13 16 23 28 33 28 24 22 21 21 22 23 28 33 35 36 39 43 43 41 46 46 46 46 49 52 55 56 54 49 50 64 74 83 82
15 9 6 6 3 3 5 2 5 18 23 27 28 30 29 26 25 26 27 25 25 23 21 23 27 30 35 41 49 51 51 50 43 46 52 53 52 51 54 55 56 64 67
14 8 2 6 10 11 7 2 6 14 16 24 26 27 27 29 36 38 35 31 31 24 20 23 23 20 22 25 23 23 22 26 35 40 43 48 50 51 55 57 58 62 69
10 8 7 11 9 9 14 20 18 16 13 17 18 21 27 32 33 33 32 32 30 22 19 20 23 26 25 26 28 30 30 33 36 37 38 41 44 45 48 52 52 51 58
12 14 14 21 30 38 32 26 29 18 19 20 17 26 35 35 29 30 29 28 29 22 20 21 26 29 30 32 33 32 33 34 33 33 37 40 39 39 38 43 45 48 52
13 13 17 19 32 28 24 23 19 13 12 15 26 36 42 28 30 35 37 28 22 25 30 33 35 35 32 34 33 32 33 33 33 35 38 41 42 43 44 43 39 38 45
13 18 21 26 22 25 19 14 7 10 13 19 26 35 39 29 34 40 41 43 39 32 35 37 41 43 42 39 33 34 36 39 42 44 44 42 40 44 50 47 46 45 42
21 22 22 21 27 24 17 15 17 18 17 21 28 29 35 38 34 41 48 46 47 37 37 38 40 42 44 44 44 44 44 44 47 49 50 54 55 49 46 48 49 49 49
14 21 27 29 23 21 21 17 18 9 17 20 20 21 24 28 29 34 38 44 46 46 35 33 36 38 42 44 47 49 53 54 54 56 53 47 50 54 50 47 45 45 47
21 25 22 21 19 14 11 14 15 13 10 14 19 20 21 26 31 30 32 38 44 45 41 35 31 28 39 50 56 60 62 63 63 60 57 53 52 52 52 52 48 46 47
29 28 22 16 13 5 4 5 8 12 16 17 21 20 21 23 28 32 29 36 38 38 46 45 40 38 40 48 55 59 63 66 64 61 59 52 49 49 58 52 49 46 48
25 25 23 11 10 12 4 5 2 9 19 25 22 21 25 30 36 30 24 30 30 34 39 38 41 42 44 52 56 56 60 62 62 62 58 55 50 47 47 50 46 43 47
20 28 22 9 12 9 4 3 11 20 27 28 28 30 32 29 23 30 32 22 30 38 42 40 43 44 46 52 58 57 58 60 61 59 57 53 46 42 42 45 48 44 48
25 22 18 8 18 2 10 17 18 19 27 36 42 33 32 28 29 25 25 37 46 49 44 43 43 45 48 58 56 54 56 58 59 53 54 48 40 40 40 43 44 47 47
Wind_Direction_500mb
240 245 244 252 252 252 253 263 253 248 245 248 256 265 264 271 267 258 257 260 256 259 253 248 243 240 238 241 244 248 249 250 254 258 254 250 253 266 265 244 241 239 234
246 251 254 258 257 255 260 260 260 252 250 257 259 263 265 267 260 260 260 261 259 259 258 257 250 243 236 240 243 246 248 254 264 262 256 255 262 267 268 244 234 238 237
253 252 256 255 256 257 274 273 270 267 261 258 256 258 266 277 265 259 262 262 261 260 262 262 267 260 245 239 238 244 248 248 250 264 271 264 270 268 268 248 237 245 245
222 232 244 256 260 269 275 279 271 273 276 259 268 270 267 275 276 265 264 262 258 258 259 264 268 262 261 255 253 249 256 259 257 260 265 272 269 265 268 252 240 238 238
213 229 247 250 246 252 260 255 251 261 277 273 261 261 263 263 266 268 262 264 261 249 307 266 264 265 263 263 259 254 253 254 259 264 267 270 271 269 258 253 247 244 235
202 205 185 198 208 206 199 207 225 242 251 258 254 257 267 272 277 278 276 275 272 257 265 285 214 254 261 259 263 270 258 257 258 263 270 269 265 267 265 257 260 254 249
225 242 249 255 247 250 258 267 270 264 270 267 267 261 265 272 275 276 280 281 274 273 273 268 264 267 272 264 268 268 277 263 262 269 266 260 267 271 268 269 253 251 252
239 251 258 262 262 262 267 275 280 279 275 275 281 280 272 269 276 285 282 281 283 283 278 276 275 279 281 279 278 280 276 267 272 271 266 268 272 280 277 271 259 261 263
255 272 282 285 285 282 281 281 282 282 281 279 282 283 285 277 270 272 274 285 289 295 295 294 290 287 286 281 279 278 281 278 275 275 275 273 271 271 274 275 267 264 264
282 295 302 308 307 314 318 320 333 348 323 292 281 277 272 276 280 283 280 274 270 271 275 283 291 291 281 282 280 274 274 279 277 273 272 273 275 273 265 263 265 260 260
286 291 311 355 47 56 63 72 78 51 37 39 32 21 342 316 309 314 318 300 288 284 280 279 284 290 288 274 272 282 286 286 283 281 281 280 280 280 277 265 259 262 262
308 73 95 97 82 80 85 63 48 19 355 343 329 311 305 309 312 310 310 313 314 310 293 282 277 280 280 276 279 285 287 291 289 295 293 291 290 284 274 276 268 272 272
128 131 128 125 129 96 92 88 26 17 22 49 53 50 40 26 14 357 339 321 304 298 299 299 296 290 288 283 272 281 283 290 298 298 296 295 294 295 285 274 272 275 278
149 136 123 154 156 22 349 52 17 28 65 55 56 51 45 39 26 16 10 3 355 343 335 327 315 305 299 294 288 284 281 282 294 297 298 299 300 295 295 291 292 286 277
165 153 199 289 281 290 262 178 57 55 58 42 43 31 23 21 14 3 359 357 356 1 14 15 20 14 10 6 0 348 333 321 315 312 310 306 302 299 293 293 295 293 280
171 151 88 40 45 80 102 116 90 84 42 32 27 12 3 350 337 336 339 340 344 335 331 344 353 3 359 354 349 343 338 334 329 324 328 309 304 304 306 303 296 301 294
136 109 71 67 94 102 110 114 100 54 62 51 28 352 350 347 347 351 350 340 335 326 328 335 335 335 333 330 331 333 333 337 333 334 336 335 329 315 308 306 304 301 304
129 114 95 95 111 101 95 101 76 58 41 32 7 8 8 7 360 353 355 342 337 346 356 355 350 341 343 336 339 336 327 326 326 327 327 332 333 328 325 320 306 304 299
128 121 105 123 118 100 102 92 80 40 83 37 13 5 11 11 17 18 17 22 20 17 13 12 11 7 1 355 342 332 329 325 322 320 318 319 320 317 317 323 318 318 306
133 124 95 103 105 114 117 105 69 70 52 24 15 17 13 10 9 6 4 6 9 13 20 18 15 11 5 3 3 359 353 348 344 335 326 319 310 307 305 306 309 318 317
134 132 107 100 105 94 86 69 61 47 34 15 8 15 18 3 358 355 354 355 355 356 358 5 4 0 3 0 359 352 349 345 338 339 339 329 332 324 312 302 304 304 305
128 125 129 115 109 105 104 80 73 61 29 3 359 355 351 349 347 342 343 345 350 348 342 341 346 347 347 346 346 345 344 343 343 339 336 336 334 330 321 308 296 299 301
142 132 132 120 126 81 68 50 26 22 11 353 347 340 343 338 342 336 326 334 333 331 339 335 325 330 336 339 340 339 338 338 338 335 332 331 335 340 339 328 309 303 301
173 180 166 117 107 104 112 163 57 11 4 350 337 335 334 330 330 326 319 316 310 325 332 323 321 322 327 333 334 331 331 333 334 333 329 327 322 320 326 328 332 320 305
161 172 170 142 140 140 144 248 331 347 353 354 343 337 335 338 332 327 328 311 310 321 325 316 319 320 322 327 328 326 328 331 333 331 328 327 323 318 322 324 325 319 326
158 160 176 192 185 222 358 343 321 338 348 349 349 340 335 324 324 320 314 316 321 320 317 314 317 317 319 325 324 323 327 330 331 332 331 332 326 326 323 323 325 325 319
Wind_Speed_850mb
62 56 61 53 51 46 45 42 41 44 42 43 43 40 39 39 37 34 36 30 35 33 34 38 45 42 44 52 56 55 48 43 45 41 37 31 32 36 47 49 52 55 39
61 56 58 54 52 49 46 37 31 35 39 40 39 41 45 50 53 44 44 38 38 35 31 31 39 43 50 53 62 61 58 48 45 50 46 50 45 45 40 52 61 59 49
57 55 37 37 39 37 32 30 28 29 30 32 34 36 36 36 43 53 50 47 42 40 36 37 35 32 46 47 47 52 57 60 53 53 49 43 44 42 39 45 61 65 64
25 30 29 27 31 31 30 29 34 39 41 44 37 37 40 40 42 46 52 52 39 39 35 38 37 38 39 36 43 47 45 53 60 60 61 55 50 48 48 44 63 65 65
27 23 26 36 48 51 51 39 37 30 31 31 38 37 38 39 43 46 49 55 47 36 10 56 39 43 41 41 39 37 42 48 50 54 63 71 74 64 50 51 56 57 62
28 19 10 9 19 21 21 23 27 31 30 29 28 32 37 38 38 41 42 39 43 50 48 18 58 63 51 52 45 38 47 45 44 49 61 75 78 74 74 55 65 69 71
21 17 14 13 16 20 20 17 21 25 29 26 28 31 31 31 32 36 36 33 32 39 43 38 48 44 52 52 48 49 46 45 47 43 69 76 79 88 83 77 85 78 84
11 11 9 9 11 14 17 19 17 16 17 19 19 19 22 27 32 32 29 29 29 29 32 37 43 51 56 60 66 66 60 60 57 61 62 63 66 66 67 62 70 77 79
10 11 13 14 16 17 18 20 22 23 24 25 24 23 23 24 29 30 26 23 25 25 22 26 33 39 39 42 49 50 48 47 45 49 56 58 58 63 60 61 71 77 86
11 15 17 16 16 14 12 13 12 8 6 12 17 22 28 30 32 33 32 31 30 27 28 26 30 30 33 34 33 37 41 42 42 44 45 51 55 60 64 66 71 82 88
13 12 9 6 8 13 16 13 9 6 8 12 10 9 9 11 15 20 21 23 27 31 34 32 33 31 30 29 28 30 34 38 44 52 59 65 67 67 63 68 71 73 85
4 4 11 16 18 18 15 12 14 13 15 18 19 19 21 22 24 26 27 26 28 28 25 33 40 41 40 38 40 43 45 47 48 49 53 59 65 70 71 62 66 70 77
11 17 14 11 9 7 7 8 13 16 23 28 33 28 24 22 21 21 22 23 28 33 35 36 39 43 43 41 46 46 46 46 49 52 55 56 54 49 50 64 74 83 82
15 9 6 6 3 3 5 2 5 18 23 27 28 30 29 26 25 26 27 25 25 23 21 23 27 30 35 41 49 51 51 50 43 46 52 53 52 51 54 55 56 64 67
14 8 2 6 10 11 7 2 6 14 16 24 26 27 27 29 36 38 35 31 31 24 20 23 23 20 22 25 23 23 22 26 35 40 43 48 50 51 55 57 58 62 69
10 8 7 11 9 9 14 20 18 16 13 17 18 21 27 32 33 33 32 32 30 22 19 20 23 26 25 26 28 30 30 33 36 37 38 41 44 45 48 52 52 51 58
12 14 14 21 30 38 32 26 29 18 19 20 17 26 35 35 29 30 29 28 29 22 20 21 26 29 30 32 33 32 33 34 33 33 37 40 39 39 38 43 45 48 52
13 13 17 19 32 28 24 23 19 13 12 15 26 36 42 28 30 35 37 28 22 25 30 33 35 35 32 34 33 32 33 33 33 35 38 41 42 43 44 43 39 38 45
13 18 21 26 22 25 19 14 7 10 13 19 26 35 39 29 34 40 41 43 39 32 35 37 41 43 42 39 33 34 36 39 42 44 44 42 40 44 50 47 46 45 42
21 22 22 21 27 24 17 15 17 18 17 21 28 29 35 38 34 41 48 46 47 37 37 38 40 42 44 44 44 44 44 44 47 49 50 54 55 49 46 48 49 49 49
14 21 27 29 23 21 21 17 18 9 17 20 20 21 24 28 29 34 38 44 46 46 35 33 36 38 42 44 47 49 53 54 54 56 53 47 50 54 50 47 45 45 47
21 25 22 21 19 14 11 14 15 13 10 14 19 20 21 26 31 30 32 38 44 45 41 35 31 28 39 50 56 60 62 63 63 60 57 53 52 52 52 52 48 46 47
29 28 22 16 13 5 4 5 8 12 16 17 21 20 21 23 28 32 29 36 38 38 46 45 40 38 40 48 55 59 63 66 64 61 59 52 49 49 58 52 49 46 48
25 25 23 11 10 12 4 5 2 9 19 25 22 21 25 30 36 30 24 30 30 34 39 38 41 42 44 52 56 56 60 62 62 62 58 55 50 47 47 50 46 43 47
20 28 22 9 12 9 4 3 11 20 27 28 28 30 32 29 23 30 32 22 30 38 42 40 43 44 46 52 58 57 58 60 61 59 57 53 46 42 42 45 48 44 48
25 22 18 8 18 2 10 17 18 19 27 36 42 33 32 28 29 25 25 37 46 49 44 43 43 45 48 58 56 54 56 58 59 53 54 48 40 40 40 43 44 47 47
Wind_Direction_850mb
240 245 244 252 252 252 253 263 253 248 245 248 256 265 264 271 267 258 257 260 256 259 253 248 243 240 238 241 244 248 249 250 254 258 254 250 253 266 265 244 241 239 234
246 251 254 258 257 255 260 260 260 252 250 257 259 263 265 267 260 260 260 261 259 259 258 257 250 243 236 240 243 246 248 254 264 262 256 255 262 267 268 244 234 238 237
253 252 256 255 256 257 274 273 270 267 261 258 256 258 266 277 265 259 262 262 261 260 262 262 267 260 245 239 238 244 248 248 250 264 271 264 270 268 268 248 237 245 245
222 232 244 256 260 269 275 279 271 273 276 259 268 270 267 275 276 265 264 262 258 258 259 264 268 262 261 255 253 249 256 259 257 260 265 272 269 265 268 252 240 238 238
213 229 247 250 246 252 260 255 251 261 277 273 261 261 263 263 266 268 262 264 261 249 307 266 264 265 263 263 259 254 253 254 259 264 267 270 271 269 258 253 247 244 235
202 205 185 198 208 206 199 207 225 242 251 258 254 257 267 272 277 278 276 275 272 257 265 285 214 254 261 259 263 270 258 257 258 263 270 269 265 267 265 257 260 254 249
225 242 249 255 247 250 258 267 270 264 270 267 267 261 265 272 275 276 280 281 274 273 273 268 264 267 272 264 268 268 277 263 262 269 266 260 267 271 268 269 253 251 252
239 251 258 262 262 262 267 275 280 279 275 275 281 280 272 269 276 285 282 281 283 283 278 276 275 279 281 279 278 280 276 267 272 271 266 268 272 280 277 271 259 261 263
255 272 282 285 285 282 281 281 282 282 281 279 282 283 285 277 270 272 274 285 289 295 295 294 290 287 286 281 279 278 281 278 275 275 275 273 271 271 274 275 267 264 264
282 295 302 308 307 314 318 320 333 348 323 292 281 277 272 276 280 283 280 274 270 271 275 283 291 291 281 282 280 274 274 279 277 273 272 273 275 273 265 263 265 260 260
286 291 311 355 47 56 63 72 78 51 37 39 32 21 342 316 309 314 318 300 288 284 280 279 284 290 288 274 272 282 286 286 283 281 281 280 280 280 277 265 259 262 262
308 73 95 97 82 80 85 63 48 19 355 343 329 311 305 309 312 310 310 313 314 310 293 282 277 280 280 276 279 285 287 291 289 295 293 291 290 284 274 276 268 272 272
128 131 128 125 129 96 92 88 26 17 22 49 53 50 40 26 14 357 339 321 304 298 299 299 296 290 288 283 272 281 283 290 298 298 296 295 294 295 285 274 272 275 278
149 136 123 154 156 22 349 52 17 28 65 55 56 51 45 39 26 16 10 3 355 343 335 327 315 305 299 294 288 284 281 282 294 297 298 299 300 295 295 291 292 286 277
165 153 199 289 281 290 262 178 57 55 58 42 43 31 23 21 14 3 359 357 356 1 14 15 20 14 10 6 0 348 333 321 315 312 310 306 302 299 293 293 295 293 280
171 151 88 40 45 80 102 116 90 84 42 32 27 12 3 350 337 336 339 340 344 335 331 344 353 3 359 354 349 343 338 334 329 324 328 309 304 304 306 303 296 301 294
136 109 71 67 94 102 110 114 100 54 62 51 28 352 350 347 347 351 350 340 335 326 328 335 335 335 333 330 331 333 333 337 333 334 336 335 329 315 308 306 304 301 304
129 114 95 95 111 101 95 101 76 58 41 32 7 8 8 7 360 353 355 342 337 346 356 355 350 341 343 336 339 336 327 326 326 327 327 332 333 328 325 320 306 304 299
128 121 105 123 118 100 102 92 80 40 83 37 13 5 11 11 17 18 17 22 20 17 13 12 11 7 1 355 342 332 329 325 322 320 318 319 320 317 317 323 318 318 306
133 124 95 103 105 114 117 105 69 70 52 24 15 17 13 10 9 6 4 6 9 13 20 18 15 11 5 3 3 359 353 348 344 335 326 319 310 307 305 306 309 318 317
134 132 107 100 105 94 86 69 61 47 34 15 8 15 18 3 358 355 354 355 355 356 358 5 4 0 3 0 359 352 349 345 338 339 339 329 332 324 312 302 304 304 305
128 125 129 115 109 105 104 80 73 61 29 3 359 355 351 349 347 342 343 345 350 348 342 341 346 347 347 346 346 345 344 343 343 339 336 336 334 330 321 308 296 299 301
142 132 132 120 126 81 68 50 26 22 11 353 347 340 343 338 342 336 326 334 333 331 339 335 325 330 336 339 340 339 338 338 338 335 332 331 335 340 339 328 309 303 301
173 180 166 117 107 104 112 163 57 11 4 350 337 335 334 330 330 326 319 316 310 325 332 323 321 322 327 333 334 331 331 333 334 333 329 327 322 320 326 328 332 320 305
161 172 170 142 140 140 144 248 331 347 353 354 343 337 335 338 332 327 328 311 310 321 325 316 319 320 322 327 328 326 328 331 333 331 328 327 323 318 322 324 325 319 326
158 160 176 192 185 222 358 343 321 338 348 349 349 340 335 324 324 320 314 316 321 320 317 314 317 317 319 325 324 323 327 330 331 332 331 332 326 326 323 323 325 325 319